Regional Weather Roundup
Issued by NWS Upton, NY

Current Version | Previous Version | Graphics & Text | Print | Product List | Glossary Off
Versions: 1 2 3 4 5 6 7 8 9 10 11 12 13 14 15 16 17 18 19 20 21 22 23 24 25 26 27

000
ASUS41 KOKX 152209
RWROKX

REGIONAL WEATHER ROUNDUP
NATIONAL WEATHER SERVICE NEW YORK NY
600 PM EDT TUE AUG 15 2017

NOTE: "FAIR" INDICATES FEW OR NO CLOUDS BELOW 12,000 FEET WITH NO
SIGNIFICANT WEATHER AND/OR OBSTRUCTIONS TO VISIBILITY.

NYZ071-072-176-178-NJZ106-104-152300-
NEW YORK CITY METRO AREA

CITY           SKY/WX    TMP DP  RH WIND       PRES   REMARKS
Central Park   CLOUDY    73  70  90 CALM      29.92S
Bronx Bot Gard   N/A     72  68  88 NE2       29.90R
LaGuardia APRT CLOUDY    74  72  93 S7        29.89S
Kennedy INTL   CLOUDY    73  72  96 S5        29.91R
Breezy Point     N/A     72 N/A N/A S2          N/A
Newark/Liberty CLOUDY    74  70  87 SW6       29.90R
Teterboro      CLOUDY    75  70  84 S5        29.88S
$$

NYZ177-179-078>081-152300-
LONG ISLAND NEW YORK

CITY           SKY/WX    TMP DP  RH WIND       PRES   REMARKS
Jones Beach      N/A     72 N/A N/A SE2         N/A
Matinecock PT    N/A     72 N/A N/A SW2         N/A
Farmingdale    CLOUDY    72  69  90 S5        29.91R
MacArthur/ISP  DRIZZLE   73  69  87 S7        29.91R
Shirley        CLOUDY    73  70  90 SE5       29.92R
Mt Sinai Harb    N/A    N/A N/A N/A S3          N/A
Westhampton    CLOUDY    71  67  87 S3        29.93R
East Hampton   PTSUNNY   70  67  90 SE3       29.91R
Montauk          N/A     71  68  90 S3        29.94R
$$

NYZ052-065-067-152300-
HUDSON VALLEY

CITY           SKY/WX    TMP DP  RH WIND       PRES   REMARKS
White Plains   CLOUDY    73  69  87 S5        29.90S
Larchmont Harb   N/A     72 N/A N/A SE2         N/A
Croton On Huds   N/A     75 N/A N/A S5          N/A
Newburgh       PTSUNNY   75  72  88 W6        29.90F
Montgomery     CLOUDY    76  69  79 S7        29.87F
Poughkeepsie   PTSUNNY   76  67  73 S6        29.86F
Albany         PTSUNNY   78  66  66 S7        29.84F
$$

NJZ001-105-106-008-010-013-015-019>022-104-152300-
NEW JERSEY

CITY           SKY/WX    TMP DP  RH WIND       PRES   REMARKS
Newark/Liberty CLOUDY    74  70  87 SW6       29.90R
Teterboro      CLOUDY    75  70  84 S5        29.88S
Caldwell       CLOUDY    74  71  91 SW3       29.91R
Somerville     CLOUDY    75  73  93 CALM      29.89R
Linden         CLOUDY    74  70  88 CALM      29.90S
Perth Amboy      N/A     72 N/A N/A SE2         N/A
Sussex         CLOUDY    75  71  87 VRB5      29.89F
Andover          N/A     74  69  85 VRB3      29.91S
Trenton        CLOUDY    75  72  90 CALM      29.90R
Millville      LGT RAIN  76  76 100 N6        29.89S FOG
Atlantic City  CLOUDY    76  74  93 E5        29.89S
Wrightstown    CLOUDY    76  74  92 SE3       29.87S
Toms River     CLOUDY    77  73  87 CALM      29.91R
Belmar         CLOUDY    74  72  93 E5        29.91S
$$

PAZ047>061-062-071-152300-
EASTERN PENNSYLVANIA

CITY           SKY/WX    TMP DP  RH WIND       PRES   REMARKS
Philadelphia   LGT RAIN  77  73  87 S5        29.90R
Allentown      CLOUDY    76  69  79 S5        29.90S
Scranton       SUNNY     78  65  63 SW7       29.89F
$$

CTZ002-004>006-009-010-012-RIZ004-006-007-MAZ004-011-015-152300-
SOUTHERN NEW ENGLAND
 IN CT

CITY           SKY/WX    TMP DP  RH WIND       PRES   REMARKS
Bradley INTL   CLOUDY    74  66  76 S8        29.89S
Hartford       PTSUNNY   75  67  76 S8        29.89R
Danbury        CLOUDY    73  68  84 S6        29.91S
Wtrbury/Oxford CLOUDY    71  67  87 S6        29.92S
Norwalk Harbor   N/A     72 N/A N/A SE5         N/A
Bridgeport     CLOUDY    73  68  84 S5        29.90S
Meriden        CLOUDY    73  67  81 S7        29.90R
New Haven      CLOUDY    73  67  81 S8        29.91R
Chester        NOT AVBL
Groton         CLOUDY    70  66  87 S5        29.91R
Wilimantic     CLOUDY    72  66  81 S7        29.91R

 IN RI

CITY           SKY/WX    TMP DP  RH WIND       PRES   REMARKS
Providence     CLOUDY    72  66  81 S8        29.92R
Block Island   CLOUDY    70  65  84 S6        29.92F
Westerly       CLOUDY    71  67  87 VRB3      29.93R
 IN MA

CITY           SKY/WX    TMP DP  RH WIND       PRES   REMARKS
Boston         CLOUDY    75  62  64 S15       29.88R
Worcester      CLOUDY    71  62  73 SW9       29.92R
Westfield      CLOUDY    76  68  76 S9        29.87F
Provincetown   CLOUDY    71  64  78 SW14      29.91S
Nantucket      LGT RAIN  66  66 100 S7        29.93S FOG
$$

ANZ330-335-338-340-345-350-353-355-152300-
COASTAL MARINE OBSERVATIONS


STATION/POSITION TIME  SKY/WX   TEMP    WIND        PRES    VSBY  WAVE
                                AIR SEA DIR/SP/G                  HT/PER
                 (UTC)          (F)     (DEG/KT/KT) (MB)    (MI)  (FT/S)
NY HARB ENTRANCE 2150            73 75  130/  4/  6 1012.0          5/11
GREAT SOUTH BAY  2130            72 77  150/  4/  6   N/A
23 SSW MONTAUK P 2150            71 70              1013.3          4/ 9
15 E BARNEGAT LI 2130               76                N/A           5/12
HUDSON CANYON    2150            73 74   60/ 10/ 10 1011.5          4/10
KINGS POINT      2148            73 73  200/  5/  6 1012.2
EXECUTION ROCKS  NOT AVBL
WESTERN LI SOUND NOT AVBL
CENTRAL LI SOUND NOT AVBL
EASTERN LI SOUND NOT AVBL
ROBBINS REEF     2136                   160/  5/  6 1013.0
$$


>>>>>>>>>>>>>>>>>>>>>>>>>>>> KEY <<<<<<<<<<<<<<<<<<<<<<<<<<<
>                                                          <
>     SKY/WX - Sky Condition/Present Weather               <
>     TMP    - Temperature in Fahrenheit                   <
>     DP     - Dew Point in Fahrenheit                     <
>     RH     - Relative Humidity in Percent                <
>     WIND   - Direction (from) and Speed in MPH           <
>     PRES   - Mean Sea Level Pressure (inches of Hg)      <
>     WCI    - Wind Chill Index                            <
>     VSB    - VISIBILITY IN MILES                         <
>     HX     - HEAT INDEX                                  <
>     TC     - TEMPERATURE IN CELSIUS                      <
>     VRB    - VARIABLE WIND DIRECTION                     <
>                                                          <
>>>>>>>>>>>>>>>>>>>>>>>>>>>> KEY <<<<<<<<<<<<<<<<<<<<<<<<<<<




USA.gov is the U.S. government's official web portal to all federal, state and local government web resources and services.